Location: Most
(50.5133°N, 13.6207°E)
Time: 22:28:49
(UTC+02:00)

ISS - Pass Details

Date: 13 September 2019
Orbit: 411 x 421 km, 51.6° (Epoch: 17 September)

Event Time Altitude Azimuth Distance (km) Brightness Sun altitude
Exits shadow 05:30:47 18° 256° (WSW) 1,102 -2.3 -11.1°
Maximum altitude 05:32:22 26° 214° (SW) 868 -2.6 -10.8°
Drops below altitude 10° 05:35:11 10° 157° (SSE) 1,487 -0.9 -10.4°
Sets 05:37:29 0° 144° (SE) 2,349 0.3 -10.1°
